CW9386 Weather Reports


time (UTC)temp
C
wind
direction
speed
KPH
gust
KPH
rain 1hr
cm
rain 24hr
cm
rain mn
cm
humidity
%
barometer
mb
20260503190639 22 234 6.4 14.5 0.00 0.00 0.00 36 1019.3
20260503185651 22 27 0.0 6.4 0.00 0.00 0.00 38 1019.4
20260503184647 22 283 1.6 6.4 0.00 0.00 0.00 37 1019.5
20260503183645 22 217 4.8 8.0 0.00 0.00 0.00 39 1019.5
20260503182642 21 151 0.0 3.2 0.00 0.00 0.00 40 1019.7
20260503181634 21 102 3.2 9.7 0.00 0.00 0.00 40 1020.1
20260503180648 21 253 4.8 12.9 0.00 0.00 0.00 41 1020.3
20260503175644 21 182 4.8 8.0 0.00 0.00 0.00 42 1020.4
20260503174639 20 311 3.2 11.3 0.00 0.00 0.00 43 1020.4
20260503173653 20 281 4.8 9.7 0.00 0.00 0.00 43 1020.7
20260503172650 20 236 4.8 8.0 0.00 0.00 0.00 44 1020.7
20260503171644 20 312 1.6 6.4 0.00 0.00 0.00 43 1021.0
20260503170634 20 9 4.8 6.4 0.00 0.00 0.00 45 1021.1
20260503150639 13 340 3.2 4.8 0.00 0.00 0.00 73 1021.7
20260503110625 10 78 0.0 0.0 0.00 0.00 0.00 82 1020.8
20260503081622 12 82 1.6 3.2 0.00 0.13 0.00 75 1021.6
20260503080638 12 83 1.6 4.8 0.00 0.13 0.00 74 1021.6
20260503071640 13 105 1.6 4.8 0.00 0.13 0.00 66 1022.3
20260503054634 13 86 1.6 4.8 0.00 0.13 0.13 67 1021.6
20260503053646 13 329 0.0 3.2 0.00 0.13 0.13 70 1021.6
20260503051636 13 29 3.2 6.4 0.00 0.13 0.13 69 1021.7
20260503050641 13 41 3.2 6.4 0.00 0.13 0.13 69 1021.7
20260503045650 14 14 3.2 8.0 0.00 0.13 0.13 68 1021.8
20260503044648 14 43 3.2 12.9 0.00 0.13 0.13 67 1021.6
20260503043643 15 16 4.8 6.4 0.00 0.13 0.13 66 1021.7
20260503041638 15 350 3.2 4.8 0.00 0.13 0.13 63 1021.7
20260503040649 15 317 1.6 3.2 0.00 0.13 0.13 62 1021.5
20260503032633 16 122 1.6 4.8 0.00 0.13 0.13 55 1021.4
20260503030642 16 95 3.2 4.8 0.00 0.13 0.13 54 1020.5
20260503025642 16 78 0.0 4.8 0.00 0.15 0.13 54 1020.4
20260503024634 16 93 1.6 4.8 0.00 0.15 0.13 54 1020.2
20260503023633 17 79 1.6 8.0 0.00 0.15 0.13 52 1020.2
20260503022631 17 39 4.8 6.4 0.00 0.15 0.13 51 1020.0
20260503021645 17 69 3.2 8.0 0.00 0.15 0.13 50 1020.1
20260503015644 18 88 4.8 9.7 0.00 0.30 0.13 47 1020.4
20260503013647 18 75 1.6 11.3 0.00 0.30 0.13 44 1020.2
20260503012644 18 57 6.4 14.5 0.00 0.30 0.13 42 1020.0
20260503011635 19 76 6.4 12.9 0.00 0.30 0.13 41 1019.9
20260503010628 20 11 4.8 9.7 0.00 0.30 0.13 40 1019.8
20260503005647 20 88 0.0 4.8 0.00 0.30 0.13 39 1019.8
20260503003638 20 42 4.8 12.9 0.00 0.30 0.13 38 1019.9
20260503001643 21 11 1.6 9.7 0.00 0.30 0.13 39 1019.8
20260503000638 21 344 4.8 8.0 0.00 0.30 0.13 39 1019.7
20260502235631 21 319 1.6 4.8 0.00 0.30 0.13 39 1019.8